Location: Pedro
(43.9050°N, 104.3408°W)
Time: 12:35:04
(UTC+00:00)

A-11 Canister half - Pass Details

Date: 02 June 2022
Orbit: 1513 x 1687 km, 47.2° (Epoch: 02 July)

Event Time Altitude Azimuth Distance (km) Brightness Sun altitude
Rises 10:17:25 0° 179° (S) 4,856 11.2 -9.3°
Reaches altitude 10° 10:22:08 10° 160° (SSE) 3,841 10.9 -8.7°
Maximum altitude 10:27:37 17° 125° (SE) 3,300 10.9 -8.0°
Drops below altitude 10° 10:33:00 10° 90° (E) 3,771 11.9 -7.2°
Sets 10:37:30 0° 72° (ENE) 4,728 13.1 -6.6°
